[[{"header":{"parameterUnit":"m.s-1","parameterCategory":1,"la1":30.2991,"la2":30.254,"lo1":-89.0895,"lo2":-89.0444,"dy":0.0017,"dx":0.0017,"nx":28,"ny":28,"refTime":"2024-12-26T09:00:00:Z","depth":0,"parameterNumber":2,"parameterNumberName":"U-component_of_WINDS"},"data":[0,0,0,0,0,0,0,0,0,0,0,0,0,0,0,0,0,0,0,0,0,0,0,0,0,0,0,0,0,0,0,0,0,0,0,0,0,0,0,0,0,0,0,0,0,0,0,0,0,0,0,0,0,0,0,0,0,0,-3.8835,-3.8836,0,-3.8906,-3.8907,-3.8908,-3.8912,-3.8911,-3.891,-3.891,-3.8978,-3.8981,-3.8983,0,0,0,0,0,0,0,0,0,0,0,0,0,-3.8699,-3.8702,-3.8835,-3.8836,-3.8837,-3.8906,-3.8907,-3.8908,-3.8912,-3.8911,-3.891,-3.8909,-3.8977,-3.898,-3.8983,0,0,0,0,0,0,0,0,0,0,0,0,0,-3.8763,-3.8702,-3.8835,-3.8848,-3.8849,-3.8906,-3.8907,-3.8908,-3.8912,-3.8911,-3.891,-3.8909,-3.8976,-3.898,-3.8984,-3.9032,0,0,-3.8996,-3.8997,0,0,0,0,0,0,0,0,-3.8759,-3.8768,-3.8845,-3.8847,-3.8849,-3.8899,-3.8884,-3.895,-3.8913,-3.8888,-3.891,-3.8908,-3.8953,-3.8958,-3.8974,-3.9035,-3.9038,-3.8996,-3.8998,-3.9,-3.9001,0,0,0,0,0,0,0,-3.8755,-3.8765,-3.8863,-3.8846,-3.8849,-3.8848,-3.8856,-3.8897,-3.8926,-3.889,-3.8891,-3.8899,-3.8953,-3.897,-3.8976,-3.9039,-3.8996,-3.8999,-3.9002,-3.9003,-3.9141,-3.9142,0,0,0,0,0,0,-3.8749,-3.8761,-3.8861,-3.8865,-3.88,-3.8852,-3.886,-3.8884,-3.8926,-3.8931,-3.89,-3.8899,-3.8964,-3.8971,-3.8978,-3.9035,-3.9,-3.9004,-3.9006,-3.9139,-3.9141,-3.9142,0,0,0,0,0,0,-3.8746,-3.8758,-3.8858,-3.8814,-3.8826,-3.8855,-3.8882,-3.8886,-3.8903,-3.8933,-3.8938,-3.8913,-3.8964,-3.8973,-3.9018,-3.9038,-3.9005,-3.9009,-3.9138,-3.914,-3.9142,-3.9151,0,0,0,0,0,0,-3.8742,-3.8756,-3.8776,-3.8814,-3.8829,-3.8898,-3.8883,-3.8889,-3.891,-3.891,-3.8946,-3.8951,-3.8964,-3.9012,-3.9022,-3.9043,-3.9012,-3.9136,-3.9139,-3.9141,-3.9149,-3.9153,-3.9157,0,0,0,0,0,-3.8737,-3.8775,-3.8777,-3.8789,-3.8854,-3.8899,-3.8908,-3.8922,-3.8912,-3.8931,-3.895,-3.895,-3.9035,-3.9017,-3.9028,-3.905,-3.9135,-3.9138,-3.9141,-3.9147,-3.9152,-3.9156,0,0,0,0,0,0,-3.8737,-3.878,-3.8783,-3.8834,-3.8863,-3.89,-3.8924,-3.8927,-3.8959,-3.8957,-3.8973,-3.8981,-3.9026,-3.9043,-3.9022,-3.9098,-3.9083,-3.9089,-3.9085,-3.909,-3.9093,-3.9087,-3.9015,0,0,0,0,0,-3.8743,-3.8778,-3.8814,-3.8856,-3.887,-3.8895,-3.8915,-3.8925,-3.8954,-3.8966,-3.8989,-3.9017,-3.905,-3.9071,-3.9103,-3.9152,-3.9159,-3.9173,-3.9176,-3.9179,-3.9183,-3.9209,-3.9215,-3.9152,-3.9152,-3.9152,0,0,-3.8755,-3.8784,-3.8804,-3.8856,-3.888,-3.8914,-3.8905,-3.8942,-3.8967,-3.8971,-3.9015,-3.9033,-3.9066,-3.9113,-3.9135,-3.9128,-3.9202,-3.9183,-3.9185,-3.9187,-3.9213,-3.9218,-3.9224,-3.9154,-3.9154,-3.9154,0,0,-3.8795,-3.8821,-3.8859,-3.8883,-3.8919,-3.8935,-3.8944,-3.8981,-3.8993,-3.9038,-3.9042,-3.9072,-3.9129,-3.9151,-3.917,-3.9219,-3.9219,-3.9229,-3.9248,-3.9273,-3.9278,-3.9282,-3.9298,-3.9304,-3.9233,-3.9233,-3.9233,0,-3.8806,-3.8859,-3.8877,-3.8914,-3.8936,-3.8944,-3.898,-3.9003,-3.9047,-3.9061,-3.9054,-3.9125,-3.9147,-3.9199,-3.9211,-3.9227,-3.9236,-3.9224,-3.9276,-3.9281,-3.9285,-3.93,-3.9306,-3.9234,-3.9234,-3.9234,-3.9234,0,-3.8869,-3.8906,-3.8932,-3.8976,-3.9001,-3.9037,-3.9059,-3.9082,-3.909,-3.9106,-3.9151,-3.9179,-3.9216,-3.9229,-3.9237,-3.9282,-3.9277,-3.9273,-3.9258,-3.9291,-3.9306,-3.9312,-3.9235,-3.9235,-3.9235,-3.9235,0,0,-3.8909,-3.8964,-3.8972,-3.8992,-3.9033,-3.9061,-3.9098,-3.9135,-3.9154,-3.9185,-3.9214,-3.9263,-3.9259,-3.928,-3.929,-3.9313,-3.9348,-3.9305,-3.9306,-3.9311,-3.9398,-3.9399,-3.9405,-3.9349,-3.935,-3.9351,-3.9394,0,-3.8952,-3.9019,-3.9036,-3.9092,-3.9125,-3.9134,-3.9165,-3.9193,-3.921,-3.9239,-3.9257,-3.929,-3.9284,-3.9297,-3.932,-3.9339,-3.9365,-3.9336,-3.9375,-3.9376,-3.9364,-3.9413,-3.9415,-3.9454,-3.94,-3.9401,-3.9402,0,-3.9011,-3.9044,-3.9104,-3.914,-3.9154,-3.9183,-3.9218,-3.9247,-3.9278,-3.9289,-3.9313,-3.9321,-3.9358,-3.9343,-3.9393,-3.9373,-3.939,-3.9402,-3.9404,-3.9406,-3.9389,-3.9415,-3.9467,-3.9472,-3.9411,-3.941,-3.941,0,-3.9032,-3.9091,-3.9134,-3.9151,-3.9195,-3.9214,-3.9233,-3.9264,-3.9285,-3.9316,-3.933,-3.9364,-3.9382,-3.9409,-3.9425,-3.9413,-3.9473,-3.946,-3.9481,-3.948,-3.9491,-3.949,-3.9545,-3.9506,-3.9506,-3.9506,-3.9506,0,-3.9077,-3.9112,-3.9144,-3.917,-3.921,-3.9229,-3.9268,-3.9286,-3.9313,-3.9342,-3.9352,-3.9378,-3.94,-3.9429,-3.9442,-3.948,-3.9489,-3.9497,-3.95,-3.9495,-3.9494,-3.9505,-3.9502,-3.9507,-3.9507,-3.9507,-3.9506,0,-3.9106,-3.9129,-3.9176,-3.9214,-3.9225,-3.9252,-3.9284,-3.9309,-3.9326,-3.9363,-3.9372,-3.9399,-3.9434,-3.9454,-3.9497,-3.9506,-3.9548,-3.9551,-3.9538,-3.9538,-3.9557,-3.9554,-3.9619,-3.9628,-3.9585,-3.9586,-3.9586,0,-3.9132,-3.916,-3.9201,-3.9222,-3.9241,-3.9275,-3.9297,-3.9317,-3.9339,-3.9377,-3.9397,-3.9433,-3.9462,-3.9517,-3.954,-3.9573,-3.9575,-3.9595,-3.958,-3.9574,-3.9573,-3.957,-3.9572,-3.9597,-3.9598,-3.9598,-3.9598,0,-3.9175,-3.9185,-3.9218,-3.9254,-3.9281,-3.931,-3.9339,-3.9355,-3.938,-3.9405,-3.9441,-3.9464,-3.9509,-3.9543,-3.9579,-3.9596,-3.9601,-3.9603,-3.961,-3.9604,-3.9595,-3.9598,-3.9543,-3.9601,-3.9601,-3.9601,-3.96,-3.96,-3.9202,-3.9227,-3.926,-3.9295,-3.932,-3.9347,-3.9372,-3.9393,-3.9424,-3.9463,-3.9473,-3.9511,-3.954,-3.9588,-3.9607,-3.9636,-3.9632,-3.9642,-3.9644,-3.9645,-3.9645,-3.9592,-3.9643,-3.9643,-3.9643,-3.9643,-3.9643,0,-3.9244,-3.9266,-3.9299,-3.934,-3.9367,-3.9372,-3.9404,-3.9426,-3.946,-3.9488,-3.9517,-3.9558,-3.9592,-3.9618,-3.9652,-3.967,-3.9673,-3.9678,-3.9676,-3.9679,-3.9647,-3.9637,-3.9675,-3.9675,-3.9675,-3.9675,-3.9675,-3.9675,-3.9269,-3.9311,-3.9325,-3.9378,-3.9399,-3.9437,-3.9455,-3.9479,-3.9502,-3.9548,-3.9577,-3.9594,-3.9621,-3.9657,-3.9688,-3.9694,-3.9705,-3.971,-3.9717,-3.9685,-3.9682,-3.9678,-3.9669,-3.9713,-3.9713,-3.9746,-3.9747,-3.9747]},{"header":{"parameterUnit":"m.s-1","parameterCategory":1,"la1":30.2991,"la2":30.254,"lo1":-89.0895,"lo2":-89.0444,"dy":0.0017,"dx":0.0017,"nx":28,"ny":28,"refTime":"2024-12-26T09:00:00:Z","depth":0,"parameterNumber":3,"parameterNumberName":"V-component_of_WINDS"},"data":[0,0,0,0,0,0,0,0,0,0,0,0,0,0,0,0,0,0,0,0,0,0,0,0,0,0,0,0,0,0,0,0,0,0,0,0,0,0,0,0,0,0,0,0,0,0,0,0,0,0,0,0,0,0,0,0,0,0,2.8407,2.8408,0,2.8458,2.8458,2.8459,2.8464,2.8463,2.8463,2.8462,2.8512,2.8513,2.8515,0,0,0,0,0,0,0,0,0,0,0,0,0,2.8313,2.8315,2.8407,2.8408,2.8408,2.8458,2.8459,2.8459,2.8464,2.8463,2.8462,2.8462,2.8511,2.8513,2.8515,0,0,0,0,0,0,0,0,0,0,0,0,0,2.8358,2.8316,2.8407,2.8417,2.8418,2.8458,2.8459,2.8459,2.8464,2.8463,2.8462,2.8461,2.851,2.8513,2.8516,2.8548,0,0,2.8524,2.8525,0,0,0,0,0,0,0,0,2.8355,2.8361,2.8414,2.8416,2.8418,2.8454,2.8444,2.8489,2.8464,2.8446,2.8462,2.8461,2.8493,2.8497,2.8508,2.8551,2.8553,2.8524,2.8526,2.8527,2.8528,0,0,0,0,0,0,0,2.8352,2.8359,2.8427,2.8415,2.8417,2.8418,2.8424,2.8452,2.8473,2.8448,2.8448,2.8454,2.8493,2.8505,2.8509,2.8554,2.8524,2.8526,2.8528,2.8529,2.8629,2.863,0,0,0,0,0,0,2.8348,2.8357,2.8425,2.8429,2.8384,2.8421,2.8427,2.8443,2.8473,2.8477,2.8455,2.8454,2.8501,2.8506,2.8511,2.8554,2.8527,2.8529,2.8531,2.8628,2.863,2.8631,0,0,0,0,0,0,2.8346,2.8354,2.8423,2.8393,2.8402,2.8423,2.8441,2.8444,2.8456,2.8479,2.8482,2.8463,2.8501,2.8507,2.854,2.8556,2.8531,2.8533,2.8627,2.8629,2.863,2.8638,0,0,0,0,0,0,2.8343,2.8353,2.8365,2.8393,2.8403,2.8452,2.8442,2.8446,2.8461,2.8461,2.8487,2.8491,2.8501,2.8536,2.8543,2.8559,2.8535,2.8626,2.8628,2.863,2.8637,2.864,2.8643,0,0,0,0,0,2.834,2.8364,2.8366,2.8374,2.842,2.8452,2.8458,2.847,2.8462,2.8476,2.849,2.849,2.8553,2.8539,2.8547,2.8564,2.8625,2.8627,2.863,2.8635,2.8639,2.8643,0,0,0,0,0,0,2.8336,2.8368,2.837,2.8405,2.8426,2.8453,2.847,2.8473,2.8496,2.8494,2.8507,2.8513,2.8546,2.8558,2.8542,2.8599,2.8588,2.8592,2.859,2.8594,2.8597,2.8593,2.8538,0,0,0,0,0,2.834,2.8364,2.839,2.8418,2.8429,2.8448,2.8462,2.847,2.8492,2.85,2.8517,2.8539,2.8564,2.8579,2.8603,2.8639,2.8646,2.8655,2.8658,2.866,2.8663,2.8686,2.8691,2.8638,2.8638,2.8638,0,0,2.8346,2.8367,2.8381,2.8418,2.8435,2.8461,2.8455,2.8481,2.8501,2.8504,2.8537,2.8551,2.8575,2.8611,2.8627,2.8622,2.868,2.8663,2.8665,2.8667,2.8689,2.8694,2.8699,2.864,2.864,2.8639,0,0,2.8372,2.839,2.8416,2.8435,2.8462,2.8475,2.8481,2.8509,2.8519,2.8552,2.8557,2.858,2.8621,2.864,2.8654,2.8691,2.8693,2.8699,2.8714,2.8736,2.874,2.8744,2.876,2.8765,2.8702,2.8702,2.8702,0,2.8377,2.8416,2.8429,2.8457,2.8474,2.848,2.8508,2.8525,2.8558,2.857,2.8564,2.8619,2.8636,2.8677,2.8687,2.8698,2.8707,2.8695,2.8739,2.8743,2.8747,2.8761,2.8767,2.8702,2.8702,2.8702,2.8702,0,2.8422,2.8449,2.8467,2.8502,2.8521,2.8548,2.8566,2.8584,2.859,2.8604,2.864,2.8661,2.869,2.87,2.8706,2.8743,2.874,2.8736,2.8725,2.8752,2.8766,2.8772,2.8703,2.8703,2.8703,2.8703,0,0,2.8445,2.8489,2.8495,2.8513,2.8545,2.8566,2.8595,2.8625,2.8641,2.8665,2.869,2.8727,2.8725,2.8742,2.875,2.8769,2.8801,2.8764,2.8765,2.8771,2.8846,2.885,2.8856,2.8802,2.8803,2.8804,2.8845,0,2.8475,2.8528,2.8542,2.8586,2.8613,2.8621,2.8647,2.867,2.8684,2.8709,2.8724,2.8751,2.8745,2.8756,2.8776,2.8793,2.8816,2.879,2.8826,2.8827,2.8821,2.8863,2.8866,2.8903,2.885,2.8851,2.8852,0,2.8518,2.8545,2.8592,2.8625,2.8636,2.8659,2.869,2.8713,2.874,2.8749,2.877,2.8777,2.8809,2.8796,2.8841,2.8823,2.8839,2.885,2.8852,2.8856,2.8842,2.887,2.8915,2.8922,2.886,2.886,2.8859,0,2.8532,2.858,2.8616,2.863,2.8668,2.8684,2.87,2.8727,2.8745,2.8772,2.8785,2.8815,2.8831,2.8854,2.887,2.8859,2.8914,2.8902,2.8923,2.8923,2.8935,2.8934,2.8985,2.8943,2.8943,2.8943,2.8943,0,2.8566,2.8595,2.8624,2.8645,2.8679,2.8696,2.8729,2.8746,2.877,2.8796,2.8804,2.8828,2.8846,2.8873,2.8886,2.8922,2.8929,2.8938,2.8941,2.8938,2.8937,2.8949,2.8947,2.8944,2.8944,2.8944,2.8943,0,2.8587,2.8608,2.8647,2.8681,2.8691,2.8714,2.8743,2.8765,2.8781,2.8814,2.8823,2.8847,2.888,2.8898,2.8938,2.8946,2.8988,2.8988,2.8979,2.8981,2.9002,2.9,2.9063,2.9073,2.9023,2.9024,2.9024,0,2.8608,2.8631,2.8669,2.8687,2.8705,2.8734,2.8754,2.8773,2.8793,2.8828,2.8846,2.888,2.8908,2.8959,2.8981,2.9012,2.9015,2.9035,2.902,2.9017,2.9018,2.9017,2.902,2.9038,2.9038,2.9039,2.9039,0,2.8643,2.8653,2.8682,2.8715,2.874,2.8767,2.8793,2.8808,2.8831,2.8854,2.8888,2.891,2.8953,2.8987,2.9021,2.9038,2.9043,2.9044,2.9051,2.9048,2.9043,2.9048,2.8988,2.9042,2.9042,2.9042,2.9041,2.9041,2.8666,2.8688,2.8719,2.8752,2.8775,2.88,2.8824,2.8844,2.8874,2.8911,2.892,2.8957,2.8986,2.9033,2.9051,2.9081,2.9077,2.9086,2.9089,2.9092,2.9094,2.9038,2.9087,2.9087,2.9087,2.9086,2.9086,0,2.8703,2.8724,2.8754,2.8793,2.882,2.8824,2.8854,2.8876,2.8909,2.8937,2.8965,2.9006,2.904,2.9065,2.91,2.9119,2.9123,2.9128,2.9127,2.9132,2.9094,2.9085,2.9125,2.9125,2.9125,2.9125,2.9125,2.9125,2.8725,2.8764,2.8778,2.883,2.885,2.8888,2.8906,2.893,2.8952,2.8999,2.9028,2.9044,2.9072,2.9109,2.9141,2.9148,2.9161,2.9166,2.9174,2.9138,2.9134,2.913,2.9122,2.9169,2.9169,2.9209,2.921,2.921]}]]